Weather reports worldwide

Advertisment
Gourette, France (7775): temperature & dewpoint: 20.09.2020 13:00:00 - 26.09.2020 13:00:00 (CEST)Gourette, France (7775): wind speed & gusts: 20.09.2020 13:00:00 - 26.09.2020 13:00:00 (CEST)Gourette, France (7775): wind direction: 20.09.2020 13:00:00 - 26.09.2020 13:00:00 (CEST)Gourette, France (7775): reduced air pressure: 20.09.2020 13:00:00 - 26.09.2020 13:00:00 (CEST)Gourette, France (7775): visibility: 20.09.2020 13:00:00 - 26.09.2020 13:00:00 (CEST)Gourette, France (7775): precipitation: 20.09.2020 13:00:00 - 26.09.2020 13:00:00 (CEST)
Date & Time tt [°C] td [°C] ff [km/h] ff [kn] fx [km/h] fx [kn] dd ppp [hPa] vv [km] rr [mm]
26.09.2020 13:00:00 - - - - - - - - - -
26.09.2020 12:00:00 22,0 4,5 31 17 53 29 SW 1000,3 - 0,0
26.09.2020 11:00:00 21,8 3,4 27 14 46 25 SW 999,9 20 0,0
26.09.2020 10:00:00 21,8 2,0 8 4 16 9 SW 999,4 - 0,0
26.09.2020 09:00:00 17,6 4,9 9 5 22 12 S 999,0 - 0,0
26.09.2020 08:00:00 16,6 2,6 9 5 42 23 WSW 998,5 15 0,0
26.09.2020 07:00:00 16,2 2,9 16 9 28 15 NNW 998,2 - 0,0
26.09.2020 06:00:00 16,0 3,4 14 8 43 23 NNW 997,6 - 0,0
26.09.2020 05:00:00 16,4 3,1 6 4 26 14 SSE 996,7 - 0,0
26.09.2020 04:00:00 16,8 3,8 15 8 63 34 W 996,0 - 0,0
26.09.2020 03:00:00 17,4 3,3 10 6 62 33 NW 997,0 - 0,0
26.09.2020 02:00:00 17,7 3,6 26 14 91 49 W 996,5 - 0,0
26.09.2020 01:00:00 17,5 3,7 44 24 81 44 W 996,5 - 0,0
26.09.2020 00:00:00 17,1 4,4 27 15 54 29 W 999,1 - 0,0
25.09.2020 23:00:00 17,9 3,7 18 10 58 31 W 999,8 - 0,0
25.09.2020 22:00:00 18,7 2,9 34 18 68 37 SW 998,8 - 0,0
25.09.2020 21:00:00 18,9 3,1 31 17 119 64 W 997,9 - 0,0
25.09.2020 20:00:00 18,6 4,4 68 37 125 68 WSW 995,3 - 0,0
25.09.2020 19:00:00 17,1 5,7 55 30 107 58 WSW 996,2 - 0,0
25.09.2020 18:00:00 18,1 6,3 45 25 78 42 WSW 997,6 - 0,0
25.09.2020 17:00:00 17,7 8,8 44 24 67 36 SW 998,6 - 0,0
25.09.2020 16:00:00 20,0 6,7 41 22 89 48 SW 999,6 - 0,0
25.09.2020 15:00:00 22,7 8,0 51 27 89 48 SW 998,8 - 0,0
25.09.2020 14:00:00 24,0 6,7 40 21 89 48 SW 999,2 18 0,0
25.09.2020 13:00:00 25,9 9,3 46 25 91 49 SW 998,8 - 0,0
25.09.2020 12:00:00 25,2 9,9 47 25 79 42 WSW 999,8 - 0,0
25.09.2020 11:00:00 25,6 11,0 28 15 63 34 SW 1000,2 - 0,0
25.09.2020 10:00:00 25,3 11,8 18 10 34 18 W 1000,5 - 0,0
25.09.2020 09:00:00 24,0 11,7 10 5 21 12 S 1000,8 - 0,0
25.09.2020 08:00:00 22,4 10,2 9 5 37 20 SW 1001,1 - 0,0
25.09.2020 07:00:00 22,1 14,2 8 4 50 27 SSE 1001,0 - 0,0
25.09.2020 06:00:00 21,6 13,2 12 6 37 20 SW 1002,0 - 0,0
25.09.2020 05:00:00 19,1 17,1 8 5 26 14 SW 1003,2 - 0,0
25.09.2020 04:00:00 19,1 17,6 8 4 18 10 W 1004,0 - 0,0
25.09.2020 03:00:00 20,0 17,6 15 8 31 17 NNW 1005,0 - 0,0
25.09.2020 02:00:00 19,6 16,4 15 8 23 12 NW 1004,9 - 0,0
25.09.2020 01:00:00 19,3 17,8 16 9 29 16 WSW 1006,1 - 2,0
25.09.2020 00:00:00 22,5 17,2 4 2 17 9 SSW 1006,2 - 0,0
24.09.2020 23:00:00 19,9 17,3 10 5 17 9 SW 1007,4 15 0,0
24.09.2020 22:00:00 20,4 18,5 11 6 16 9 WSW 1008,1 - 0,0
24.09.2020 21:00:00 21,6 20,2 5 3 9 5 S 1008,9 - 0,4
24.09.2020 20:00:00 22,4 20,3 2 1 16 9 NNE 1009,0 - 0,0
24.09.2020 19:00:00 23,0 20,3 13 7 15 8 N 1009,2 - 0,2
24.09.2020 18:00:00 24,4 20,5 11 6 22 12 NNE 1009,6 - 0,0
24.09.2020 17:00:00 26,2 20,5 16 9 23 12 NNE 1010,0 - 0,0
24.09.2020 16:00:00 25,9 19,3 5 3 13 7 E 1010,4 - 0,0
24.09.2020 15:00:00 24,8 19,2 4 2 21 11 ESE 1010,9 - 0,0
24.09.2020 14:00:00 26,3 19,4 11 6 22 12 ESE 1011,3 - 0,0
24.09.2020 13:00:00 26,6 19,2 15 8 24 13 SE 1011,6 - 0,0
24.09.2020 12:00:00 26,8 19,2 9 5 21 12 ESE 1012,0 - 0,0
24.09.2020 11:00:00 26,6 19,2 7 4 19 11 S 1012,1 - 0,0
24.09.2020 10:00:00 24,6 17,8 9 5 16 9 S 1012,2 - 0,0
24.09.2020 09:00:00 22,3 16,8 5 3 13 7 NW 1011,7 - 0,0
24.09.2020 08:00:00 20,8 14,4 8 5 18 10 NNW 1011,5 - 0,0
24.09.2020 07:00:00 19,9 13,4 15 8 18 10 N 1011,2 - 0,0
24.09.2020 06:00:00 20,1 13,5 14 7 19 10 NNW 1011,2 - 0,0
24.09.2020 05:00:00 20,1 14,5 15 8 21 11 NNW 1011,2 - 0,0
24.09.2020 04:00:00 18,9 14,4 9 5 16 9 NNW 1011,6 - 0,0
24.09.2020 03:00:00 20,4 14,1 8 5 14 8 N 1011,6 - 0,0
24.09.2020 02:00:00 20,8 15,6 8 5 15 8 SSW 1011,7 - 0,0
24.09.2020 01:00:00 20,9 15,7 11 6 16 9 WSW 1011,9 - 0,0
24.09.2020 00:00:00 20,5 15,3 12 6 19 10 SW 1012,2 - 0,0
23.09.2020 23:00:00 20,4 16,0 11 6 13 7 SW 1011,9 15 0,0
23.09.2020 22:00:00 20,6 15,6 11 6 15 8 SW 1011,7 - 0,0
23.09.2020 21:00:00 20,1 15,9 13 7 16 9 SW 1011,4 - 0,0
23.09.2020 20:00:00 21,9 16,8 5 3 14 7 WNW 1011,0 15 0,0
23.09.2020 19:00:00 22,7 18,9 9 5 24 13 N 1011,1 - 0,0
23.09.2020 18:00:00 25,1 19,2 15 8 23 12 N 1010,9 - 0,0
23.09.2020 17:00:00 24,7 18,9 17 9 26 14 NNE 1010,9 - 0,0
23.09.2020 16:00:00 26,0 19,6 16 9 26 14 NE 1010,4 - 0,0
23.09.2020 15:00:00 24,9 19,3 16 9 24 13 ENE 1010,1 - 0,0
23.09.2020 14:00:00 25,0 19,6 11 6 20 11 ENE 1010,8 - 0,0
23.09.2020 13:00:00 24,7 19,8 8 4 16 9 E 1011,5 - 0,0
23.09.2020 12:00:00 23,0 18,5 3 2 17 9 NE 1011,8 - 0,0
23.09.2020 11:00:00 23,4 18,9 9 5 19 10 SSW 1011,6 18 0,0
23.09.2020 10:00:00 21,0 18,4 9 5 15 8 SSW 1012,2 - 0,0
23.09.2020 09:00:00 20,6 18,2 8 5 13 7 SW 1011,7 - 0,0
23.09.2020 08:00:00 20,6 17,2 8 4 17 9 WNW 1011,4 - 0,0
23.09.2020 07:00:00 19,3 16,0 15 8 26 14 NW 1011,9 - 0,0
23.09.2020 06:00:00 20,1 15,3 10 5 19 10 NW 1011,6 - 0,0
23.09.2020 05:00:00 20,1 15,9 10 5 21 11 NW 1011,8 - 0,0
23.09.2020 04:00:00 19,4 14,6 16 9 22 12 NW 1012,1 - 0,0
23.09.2020 03:00:00 19,1 15,6 6 4 10 5 N 1012,0 - 0,0
23.09.2020 02:00:00 19,5 16,2 5 3 11 6 SSW 1012,8 15 0,0
23.09.2020 01:00:00 20,3 15,7 5 3 13 7 WSW 1012,9 - 0,0
23.09.2020 00:00:00 19,2 15,9 8 4 9 5 SSW 1013,3 - 0,0
22.09.2020 23:00:00 20,6 15,4 3 2 13 7 W 1013,7 - 0,0
22.09.2020 22:00:00 20,2 16,2 9 5 16 9 NW 1013,9 - 0,0
22.09.2020 21:00:00 19,8 17,6 12 6 16 9 NNW 1013,5 - 0,0
22.09.2020 20:00:00 20,0 17,6 8 4 19 10 WNW 1013,0 - 0,2
22.09.2020 19:00:00 20,4 19,4 13 7 18 10 SW 1013,1 - 0,2
22.09.2020 18:00:00 21,3 19,9 6 3 8 5 SE 1013,0 - 0,0
22.09.2020 17:00:00 22,1 20,0 3 1 12 7 NW 1013,8 15 0,0
22.09.2020 16:00:00 21,1 19,9 9 5 16 9 NNW 1014,0 - 4,0
22.09.2020 15:00:00 18,7 17,5 16 8 37 20 NW 1014,8 - 14,1
22.09.2020 14:00:00 22,6 19,9 10 5 25 14 ENE 1014,4 15 1,2
22.09.2020 13:00:00 26,5 19,6 11 6 18 10 E 1014,6 - 0,0
22.09.2020 12:00:00 25,3 19,4 9 5 20 11 ESE 1014,9 - 0,0
22.09.2020 11:00:00 24,9 18,3 10 5 16 9 ENE 1014,9 15 0,0
22.09.2020 10:00:00 25,3 18,0 8 4 13 7 NNE 1014,8 - 0,0
22.09.2020 09:00:00 22,7 16,9 3 2 8 4 WNW 1014,6 - 0,0
22.09.2020 08:00:00 21,0 16,2 6 3 10 5 W 1014,4 15 0,0
22.09.2020 07:00:00 21,2 15,9 5 3 9 5 NW 1014,4 - 0,0
22.09.2020 06:00:00 21,1 16,7 2 1 9 5 WSW 1014,2 - 0,0
22.09.2020 05:00:00 20,4 16,4 7 4 10 5 SW 1014,4 10 0,0
22.09.2020 04:00:00 21,1 16,5 8 4 11 6 W 1014,7 - 0,0
22.09.2020 03:00:00 21,4 16,8 5 3 9 5 W 1015,1 - 0,0
22.09.2020 02:00:00 21,2 16,6 9 5 13 7 NW 1015,3 10 0,0
22.09.2020 01:00:00 21,2 17,4 8 4 9 5 WSW 1015,6 - 0,0
22.09.2020 00:00:00 20,8 16,8 9 5 12 6 W 1015,9 - 0,0
21.09.2020 23:00:00 20,8 16,6 5 3 13 7 NW 1015,8 10 0,0
21.09.2020 22:00:00 20,6 16,4 8 4 18 10 WNW 1015,5 - 0,0
21.09.2020 21:00:00 21,2 16,4 12 7 18 10 NW 1015,5 - 0,0
21.09.2020 20:00:00 20,5 18,1 4 2 14 7 NW 1015,4 15 0,0
21.09.2020 19:00:00 20,6 18,4 9 5 21 11 NW 1015,3 - 0,4
21.09.2020 18:00:00 19,7 18,2 11 6 22 12 W 1015,1 - 0,8
21.09.2020 17:00:00 20,5 17,7 17 9 33 18 NW 1015,0 15 6,8
21.09.2020 16:00:00 23,5 17,5 18 10 35 19 NNW 1014,8 - 0,0
21.09.2020 15:00:00 27,5 19,0 13 7 22 12 E 1014,5 - 0,0
21.09.2020 14:00:00 27,1 18,4 12 6 27 14 E 1015,2 - 0,0
21.09.2020 13:00:00 27,2 19,3 15 8 28 15 ESE 1015,5 - 0,0
21.09.2020 12:00:00 26,9 19,0 14 7 24 13 SE 1015,5 - 0,0
21.09.2020 11:00:00 25,9 18,8 11 6 20 11 ESE 1015,7 - 0,0
21.09.2020 10:00:00 25,5 19,2 5 3 11 6 E 1015,6 - 0,0
21.09.2020 09:00:00 23,7 17,9 3 2 7 4 SE 1015,1 - 0,0
21.09.2020 08:00:00 21,3 17,3 4 2 8 4 SW 1014,9 15 0,0
21.09.2020 07:00:00 21,5 17,5 5 3 13 7 W 1014,6 - 0,0
21.09.2020 06:00:00 20,8 16,8 9 5 13 7 WNW 1015,0 - 0,0
21.09.2020 05:00:00 21,1 15,6 7 4 16 9 NNW 1014,9 - 0,0
21.09.2020 04:00:00 20,7 15,7 13 7 18 10 NNW 1014,9 - 0,0
21.09.2020 03:00:00 21,3 15,8 13 7 18 10 NW 1015,4 - 0,0
21.09.2020 02:00:00 21,2 17,0 2 1 15 8 SSW 1015,5 - 0,0
21.09.2020 01:00:00 20,9 16,9 9 5 16 9 WNW 1015,5 - 0,0
21.09.2020 00:00:00 20,0 17,6 8 4 14 8 WNW 1015,4 - 0,0
20.09.2020 23:00:00 20,3 16,3 14 8 22 12 NNW 1015,3 15 0,0
20.09.2020 22:00:00 21,0 17,6 9 5 13 7 NNW 1015,2 - 0,0
20.09.2020 21:00:00 20,8 17,6 3 2 13 7 NNE 1014,6 - 0,0
20.09.2020 20:00:00 22,1 18,3 11 6 21 11 N 1014,5 15 0,0
20.09.2020 19:00:00 23,6 17,8 9 5 28 15 NNE 1014,2 - 0,0
20.09.2020 18:00:00 22,9 18,4 23 13 44 24 NNE 1014,0 - 0,0
20.09.2020 17:00:00 23,8 20,5 25 14 48 26 N 1013,9 - 0,0
20.09.2020 16:00:00 25,7 17,4 31 17 52 28 N 1013,9 - 0,0
20.09.2020 15:00:00 27,7 21,3 8 4 24 13 SE 1013,5 - 0,0
20.09.2020 14:00:00 25,3 23,2 6 3 23 12 SE 1013,9 - 0,8
20.09.2020 13:00:00 27,3 21,3 16 9 26 14 ENE 1013,9 - 0,0

tt = temperature
td = dewpoint
ff = wind speed
fx = gusts
dd = wind direction
ppp = reduced air pressure
vv = visibility
rr = precipitation

Next stations